EHI
0 4 9 13 12 9 9 11 11 11 10 10 9 7 6 6 4 3 3 2 1 0 0 0 0 0 0 1 1 1 2 2 1 0 0 0 0 0 0 0 0 0 0
1 4 9 12 12 10 10 11 12 11 10 9 8 7 6 6 4 3 3 3 1 1 1 0 0 0 1 2 1 1 1 1 0 0 0 0 0 0 0 0 0 0 0
3 4 7 11 12 12 12 12 12 12 11 9 8 7 6 6 4 3 3 3 3 2 2 1 0 0 1 1 1 0 0 0 0 0 0 0 0 0 0 0 0 0 0
3 4 7 10 12 14 13 12 12 12 11 10 9 8 8 6 4 3 3 3 3 3 3 1 1 1 1 1 0 0 0 0 0 0 0 0 0 0 0 0 0 0 0
4 4 7 10 14 16 16 13 12 13 13 11 11 11 9 8 5 4 3 3 3 3 4 3 2 2 2 1 0 0 0 0 0 0 0 0 0 0 0 0 0 1 1
4 5 7 10 15 19 19 16 14 15 14 12 12 12 11 9 8 6 5 4 4 5 6 5 3 2 2 1 0 0 0 0 0 0 0 0 0 0 0 0 0 0 0
4 6 7 10 15 21 22 20 17 16 14 13 12 12 12 11 10 9 7 7 7 7 8 6 3 1 1 0 0 0 0 0 0 0 0 0 0 0 0 0 0 0 0
5 6 7 9 14 20 22 21 18 16 14 12 12 12 13 13 12 11 10 10 10 9 9 6 3 1 0 0 0 0 0 0 0 0 0 0 0 0 0 0 0 0 0
5 6 6 7 11 15 18 17 16 15 14 12 11 12 13 13 13 12 12 12 12 10 8 6 4 1 0 0 0 0 0 0 0 0 0 0 0 0 0 0 0 0 0
5 5 5 6 7 9 10 11 12 14 13 12 11 11 12 12 12 12 12 12 11 9 6 5 4 3 1 0 0 0 0 0 0 0 0 0 0 0 0 0 0 0 0
4 4 5 5 5 5 5 7 9 11 12 11 11 11 11 10 10 9 8 9 9 7 4 4 4 3 2 0 0 0 0 0 0 0 0 0 0 0 0 0 0 0 0
3 4 5 5 4 4 4 5 7 8 10 9 9 9 9 8 6 4 5 6 6 5 3 3 3 2 1 0 0 0 0 0 0 0 0 0 0 0 0 0 0 0 0
4 4 5 5 4 3 4 4 4 6 6 6 7 8 9 7 3 2 2 3 3 2 1 1 1 1 0 0 0 0 0 0 0 0 0 0 0 0 0 0 0 0 0
5 4 5 5 4 3 3 3 3 3 4 5 6 8 8 6 3 1 1 1 1 0 0 0 0 0 0 0 0 0 0 0 0 0 0 0 0 0 0 0 0 0 0
5 5 5 5 4 3 3 3 3 3 4 5 6 7 7 6 3 1 0 0 0 0 0 0 0 0 0 0 0 0 0 0 0 0 0 0 0 0 0 0 0 0 0
5 4 4 4 3 3 3 3 3 3 4 5 6 5 5 4 3 2 1 0 0 0 0 0 0 0 0 0 0 0 0 0 0 0 0 0 0 0 0 0 0 0 0
3 3 3 3 3 3 3 3 3 3 3 4 6 5 4 3 2 2 1 0 0 0 0 0 0 0 0 0 0 0 0 0 0 0 0 0 0 0 0 0 1 1 1
2 2 2 3 3 3 3 3 3 3 3 4 5 5 4 2 1 1 1 0 0 0 0 0 0 0 0 0 0 0 0 0 0 0 0 0 0 0 0 0 1 2 2
2 1 1 1 2 3 3 3 3 3 3 3 4 5 4 2 1 0 0 0 0 0 0 0 0 0 0 0 0 0 0 0 0 0 0 0 0 0 0 0 1 1 1
1 0 0 0 1 3 3 3 3 3 3 3 4 4 4 2 1 0 0 0 0 0 0 0 0 0 0 0 0 0 0 0 0 0 0 0 0 0 0 0 0 0 0
0 0 0 0 1 2 3 3 3 3 3 3 3 4 3 2 1 0 0 0 0 0 0 0 0 0 0 0 0 0 0 0 0 0 0 0 0 0 0 0 0 0 0
0 0 0 0 0 1 3 3 3 3 2 2 3 3 3 2 1 0 0 0 0 0 0 0 0 0 0 0 0 0 0 0 0 0 0 0 0 0 0 0 0 0 0
0 0 0 0 0 1 2 3 3 3 2 1 2 3 2 2 1 0 0 0 0 0 0 0 0 0 0 0 0 0 0 0 0 0 0 0 0 0 0 0 0 0 0
0 0 0 0 0 0 1 2 3 3 2 1 2 2 1 1 1 0 0 0 0 0 0 0 0 0 0 0 0 0 0 0 0 0 0 0 0 0 0 0 0 0 0
0 0 0 0 0 0 0 1 2 2 1 0 1 1 0 0 0 0 0 0 0 0 0 0 0 0 0 0 0 0 0 0 0 0 0 0 0 0 0 0 0 0 0
0 0 0 0 0 0 0 0 1 1 0 0 0 0 0 0 0 0 0 0 0 0 0 0 0 0 0 0 0 0 0 0 0 0 0 0 0 0 0 0 0 0 0
Wind_Speed
3 4 8 11 12 13 13 12 12 12 12 13 13 13 13 13 13 14 14 14 14 14 15 16 16 17 17 18 18 18 18 18 18 17 17 16 17 17 18 17 15 11 18
5 5 9 12 13 13 13 12 12 12 12 12 13 13 13 13 13 13 14 14 14 15 15 16 16 16 17 18 18 18 17 17 17 16 15 13 14 16 17 16 15 11 17
5 6 8 12 13 13 13 13 12 12 12 12 12 12 13 13 13 13 13 14 14 14 15 15 16 16 17 17 17 17 17 17 17 15 13 8 10 16 17 17 17 17 17
5 5 7 12 13 13 13 13 12 12 12 12 12 12 13 13 13 13 13 13 14 14 14 15 15 15 16 16 17 17 17 16 16 14 8 7 7 14 17 17 17 17 17
4 4 7 12 13 13 13 13 12 12 12 12 12 12 12 13 13 13 13 13 13 13 14 14 15 15 15 16 16 17 17 16 16 12 7 7 6 14 16 17 17 16 16
4 4 7 11 13 13 13 13 12 12 12 12 12 12 12 13 13 13 13 13 13 13 14 14 14 15 15 15 16 16 16 16 12 8 7 6 6 13 16 16 16 16 16
4 4 5 10 12 12 12 12 12 12 12 12 12 12 12 12 13 12 12 12 12 13 14 14 14 15 15 15 15 16 15 14 9 7 7 6 7 14 15 15 15 15 15
5 4 5 9 10 11 11 11 11 11 11 11 11 11 12 12 12 12 12 12 12 13 13 13 13 14 14 15 15 15 14 12 9 8 6 5 10 13 14 14 14 14 15
5 5 4 5 6 9 10 10 10 10 10 10 10 10 11 11 11 12 11 11 12 12 12 13 13 14 14 14 14 14 14 13 7 5 6 5 10 13 13 13 13 13 14
5 5 4 5 5 4 6 9 9 9 9 10 10 10 10 10 10 11 10 11 11 12 12 12 14 14 14 13 13 13 13 10 6 5 4 5 11 12 13 13 13 13 12
5 4 4 5 4 4 4 6 7 8 9 9 8 10 8 5 5 6 8 10 11 11 12 13 13 14 13 12 13 12 10 4 5 4 3 8 11 12 12 12 12 12 12
4 3 3 4 4 4 4 3 3 4 4 5 5 5 4 4 4 6 9 10 10 11 11 12 13 12 9 5 8 9 4 5 4 3 4 9 10 11 11 11 11 11 11
4 3 3 4 4 4 3 3 2 2 3 4 5 5 4 4 4 4 3 5 6 7 6 8 7 5 5 4 4 4 5 4 3 3 4 9 9 10 10 10 10 11 11
4 3 2 4 4 4 3 3 2 3 3 3 3 4 4 3 3 3 3 3 3 3 4 4 4 5 6 5 5 6 5 4 3 3 4 9 9 10 10 9 10 10 10
4 3 3 3 4 3 3 3 2 2 3 3 3 3 4 4 4 3 3 3 3 3 4 4 4 5 5 5 5 6 5 5 4 4 3 8 9 9 9 9 9 9 9
3 3 3 3 3 4 3 3 2 2 2 3 3 3 4 4 4 4 4 3 3 3 3 4 4 4 4 4 5 5 5 4 5 5 4 5 9 9 9 9 8 8 8
2 2 2 3 3 3 3 3 2 2 2 3 3 3 4 4 4 4 4 3 3 3 4 4 5 4 4 4 5 5 4 5 5 5 5 4 4 7 9 9 8 7 7
2 2 2 2 2 2 2 3 2 2 3 2 3 3 4 4 5 4 4 3 3 3 4 4 4 4 4 4 4 3 3 4 5 4 4 4 4 4 6 9 9 8 7
3 3 2 2 2 2 2 2 2 2 2 2 2 3 3 4 4 4 4 4 4 3 3 4 3 3 4 4 4 3 3 3 3 4 4 5 4 4 4 7 9 9 8
2 2 3 2 2 2 2 2 2 2 2 2 2 3 4 3 4 4 4 5 5 4 3 4 4 3 3 4 4 4 3 3 3 3 3 3 3 4 4 4 4 5 8
2 2 2 2 1 2 1 2 2 2 2 2 2 4 4 4 4 4 4 4 5 4 4 5 4 5 3 3 3 3 2 3 3 2 2 2 3 3 3 4 3 3 3
1 1 2 2 2 2 1 1 1 2 2 2 1 2 4 4 5 4 5 4 4 4 5 5 5 3 2 2 3 3 1 1 2 2 2 2 2 2 3 3 3 3 2
1 1 1 1 1 2 1 1 1 1 1 1 1 2 3 4 4 4 5 5 5 5 5 5 5 4 4 1 1 3 4 3 1 1 1 1 1 1 1 2 2 2 2
1 1 1 1 1 2 2 2 3 3 2 2 2 2 2 3 4 4 5 5 5 4 5 6 4 3 5 4 1 0 1 3 3 1 1 1 1 0 0 1 1 1 1
0 0 0 0 1 1 2 3 3 2 2 1 1 2 2 2 4 4 5 5 5 4 5 5 5 4 4 4 3 2 2 2 2 3 2 1 1 1 0 0 0 0 1
1 1 1 0 0 1 1 2 2 3 2 2 2 3 2 2 3 4 5 5 5 5 5 5 5 5 4 4 3 3 3 4 3 3 3 2 1 1 1 1 1 1 0
Wind_Direction
196 194 180 155 143 137 131 126 121 117 114 112 109 105 102 99 96 93 92 91 89 88 86 86 84 81 80 79 78 76 74 74 74 73 72 73 77 79 79 77 75 73 79
165 178 174 153 145 140 133 128 122 119 116 113 111 108 105 102 98 94 92 91 90 90 88 86 84 83 82 81 78 77 75 74 72 68 65 67 71 77 78 78 78 79 80
145 163 163 150 146 141 136 130 126 122 119 115 112 110 106 103 99 95 93 90 89 89 89 87 86 84 83 82 81 78 76 74 70 64 58 57 70 77 78 77 78 79 79
138 147 153 148 146 142 138 133 129 125 121 117 114 110 107 103 99 96 94 90 89 88 88 88 88 87 85 84 83 80 77 74 68 60 53 50 64 78 78 77 77 78 79
121 124 145 147 145 144 140 135 131 128 124 120 116 112 109 105 102 98 96 92 90 91 91 89 89 88 86 85 84 82 79 73 65 57 50 48 59 77 77 76 75 75 77
111 115 139 141 142 141 139 136 133 129 125 122 118 114 111 108 105 102 99 96 93 93 93 92 92 90 88 86 85 83 78 72 62 52 48 46 57 77 78 76 75 75 75
110 107 128 136 136 136 137 135 133 130 127 123 121 117 113 111 107 104 102 100 98 95 94 93 93 93 90 88 86 82 77 69 62 53 47 45 63 76 78 77 75 75 75
106 101 113 124 129 133 131 132 131 129 127 124 122 119 115 113 110 108 105 103 101 99 97 95 94 93 91 89 85 80 74 69 64 55 48 50 68 75 77 77 76 75 75
92 92 95 109 116 125 128 127 124 124 125 123 120 116 113 112 112 110 107 105 103 101 99 97 95 93 91 90 86 80 74 66 58 53 50 51 68 74 76 77 76 74 74
84 84 87 92 98 103 118 120 119 117 116 115 114 109 106 106 107 108 106 104 103 102 101 99 97 92 88 86 83 78 71 62 54 49 45 63 71 74 76 76 76 76 75
89 81 81 83 88 94 96 110 109 111 110 108 107 104 99 94 96 99 99 101 103 103 102 100 96 90 83 79 77 72 64 55 52 47 47 69 75 77 77 76 76 77 76
124 101 91 93 91 90 92 92 95 91 94 96 99 99 94 92 95 93 92 94 96 96 97 95 90 83 75 70 67 62 58 54 50 40 52 69 76 80 80 78 77 78 77
134 111 104 108 102 99 99 97 99 101 97 98 102 101 97 90 91 85 87 83 82 82 83 85 79 73 71 70 69 63 58 56 45 34 47 65 76 81 82 82 81 81 79
126 117 104 107 101 97 99 104 105 114 114 114 111 110 109 105 98 98 93 91 88 91 94 87 88 80 76 72 72 68 58 53 46 35 40 57 70 79 83 85 85 85 83
132 133 126 110 107 106 108 111 107 114 128 125 119 113 114 118 117 110 104 98 98 101 104 100 95 89 82 74 71 69 61 54 49 45 33 48 61 71 77 80 82 85 85
140 145 136 125 120 125 123 122 129 120 125 126 125 121 120 124 125 120 115 111 108 109 107 106 106 98 87 81 73 66 61 53 48 46 40 37 47 60 67 72 76 80 83
147 131 126 130 119 126 129 129 131 136 127 136 131 126 124 124 128 126 125 122 121 115 111 106 100 96 91 82 71 63 61 54 50 45 43 39 35 45 60 66 67 71 77
130 132 132 112 115 119 125 130 139 138 134 135 136 134 132 129 131 129 130 129 122 121 120 119 115 105 94 88 76 58 53 51 49 48 48 43 39 35 46 56 56 59 69
151 144 131 106 112 123 117 124 133 138 140 137 142 142 144 140 141 136 137 136 130 125 126 128 115 116 114 104 89 68 51 49 41 47 50 44 42 42 41 45 47 49 55
134 136 128 122 110 105 112 115 116 120 143 145 155 152 149 148 147 141 141 142 136 131 128 128 121 107 118 117 96 70 49 41 42 45 46 43 42 44 45 47 42 37 43
100 119 135 134 130 122 137 158 159 177 180 169 167 160 157 152 149 148 148 151 148 147 146 142 130 120 112 124 105 80 42 42 47 38 40 50 42 38 50 49 45 39 29
118 145 158 170 168 169 179 200 183 167 177 177 162 159 161 160 158 158 158 161 159 147 144 144 139 134 137 149 134 126 91 1 3 12 25 49 36 34 47 42 45 43 36
156 192 201 203 193 186 165 131 118 116 106 135 171 172 181 169 166 163 163 161 166 161 163 163 159 151 159 179 152 147 156 196 266 344 1 20 26 42 42 35 42 42 37
217 202 209 199 188 189 162 150 162 171 182 195 195 185 188 174 170 166 163 165 168 169 169 173 168 159 160 172 165 78 134 144 154 183 322 340 338 358 22 14 23 26 28
219 155 183 176 199 191 179 175 179 181 190 179 155 178 188 189 176 174 173 171 170 172 175 173 171 173 175 178 175 161 137 111 129 153 201 268 306 288 265 252 267 323 353
34 40 44 80 327 235 195 187 194 191 181 175 179 191 195 212 189 184 181 179 177 177 179 179 179 183 186 185 183 180 176 168 172 165 175 195 238 275 292 257 240 236 247